CUBEBUG-2 (LO-74) (39440 NORAD) Tracking and Keplerian Element Data

This shows tracking and keplerian element data for the satellite.

Feedback or suggestion? Click here.




ElementValue
Catalog39440
NameCUBEBUG-2 (LO-74)
Epoch Orbit29527
Epoch Day145.95360299
Epoch Year2019
RAAN145.7936
Inclination97.6018
Eccentricity0.0080769
Argument of Perigee161.0292
Mean Anonmoly199.3957
Mean Motion14.75842884
Decay Rate1.48E-06
L11 39440U 13066AA 19145.95360299 .00000148 00000-0 27427-4 0 9998
L22 39440 97.6018 145.7936 0080769 161.0292 199.3957 14.75842884295278

Live tracking and technical data element details for CUBEBUG-2 (LO-74) (NORAD 39440). CUBEBUG-2 (LO-74) can be tracked NOW for your location showing map with azimuth and elevation plus other details from your city location.

Track the satellite on the map from your city or location and see movement details for azimuth, elevation, latitude, longitude, range, height, and movement on the map or in text.







IsCatalogInMostPopularTable: catalog: 39440, numindb: 195
Update: records affected: 1



GetName: 39440 CUBEBUG-2 (LO-74)

Hit Count: updated at: Mon, 27 May 2019 04:10:27 GMT